Terug naar catalogus

CZ-6A DEB

ActiefSSO
NORAD 56668·DEBRIS·🇨🇳 China

Gelanceerd Nov 11, 2022 vanaf Taiyuan Satellite Launch Center

Loading…

Volgende Passages (komende 24 uur)

TLE

VersSource: Space-Track

Epoch: Sep 14, 2026, 15:41 UTC

1 56668U 22151AGU 26257.65405026  .00002113  00000-0  64990-3 0  9990
2 56668  98.8208 322.4453 0034238 109.3444 251.1451 14.42276317193331

Volg CZ-6A DEB in realtime met AllMySat

Download on the App Store